Regional Weather Roundup
Issued by NWS Sioux Falls, SD

Home | Current Version | Previous Version | Graphics & Text | Print | Product List | Glossary On
Versions: 1 2 3 4 5 6 7 8 9 10 11 12 13 14 15 16 17 18 19 20 21 22 23 24 25 26 27 28 29 30 31 32 33 34 35 36 37 38 39 40 41 42 43 44 45 46 47 48 49 50
176
ASUS43 KFSD 240602
RWRFSD

WEATHER ROUNDUP FOR SE SOUTH DAKOTA/SW MINNESOTA/NW IOWA
NATIONAL WEATHER SERVICE SIOUX FALLS SD
100 AM CDT TUE APR 24 2018

NOTE: "FAIR" INDICATES FEW OR NO CLOUDS BELOW 12,000 FEET WITH NO
SIGNIFICANT WEATHER AND OR OBSTRUCTIONS TO VISIBILITY.


SDZ038>040-050-052>070-240700-
SOUTHEAST SOUTH DAKOTA

CITY           SKY/WX    TMP DP  RH WIND       PRES   REMARKS
BROOKINGS      CLOUDY    52  42  69 CALM      30.15R
CHAMBERLAIN    CLOUDY    57  45  64 SE12      30.09R
6HR MIN TEMP:  56; 6HR MAX TEMP:  69;

HURON          CLOUDY    56  44  64 SE12      30.11S
6HR MIN TEMP:  56; 6HR MAX TEMP:  66;

MADISON        CLOUDY    48  48 100 S7        30.14S
MITCHELL       CLOUDY    56  43  61 SE10      30.12S
6HR MIN TEMP:  56; 6HR MAX TEMP:  68;

SIOUX FALLS    PTCLDY    46  39  76 NE3       30.13F
6HR MIN TEMP:  46; 6HR MAX TEMP:  66;

WINNER         LGT RAIN  57  43  59 W10       30.13R
YANKTON        CLEAR     51  40  65 E5        30.14R
$$

MNZ071-072-080-081-089-090-097-098-240700-
SOUTHWEST MINNESOTA

CITY           SKY/WX    TMP DP  RH WIND       PRES   REMARKS
FAIRMONT       CLOUDY    47  38  71 CALM      30.15S
JACKSON        CLOUDY    45  37  76 CALM      30.16S
LUVERNE        CLOUDY    45  41  87 CALM      30.15S
MARSHALL       CLOUDY    46  39  76 SW3       30.15S
6HR MIN TEMP:  45; 6HR MAX TEMP:  65;

MONTEVIDEO     PTCLDY    48  36  61 NW3       30.15S
PIPESTONE      CLOUDY   N/A N/A N/A E5        30.15S
REDWOOD FALLS  CLOUDY    49  41  74 CALM      30.14S
TRACY          CLOUDY    47  41  77 SW7       30.15S
WINDOM         CLEAR     43  28  56 CALM      30.16R
WORTHINGTON    PTCLDY    45  40  82 CALM      30.16S
$$

IAZ001>003-012>014-020>022-031-032-NEZ013-014-SDZ071-240700-
NORTHWEST IOWA

CITY           SKY/WX    TMP DP  RH WIND       PRES   REMARKS
CHEROKEE       CLEAR     44  41  89 CALM      30.15R
DENISON        CLOUDY    48  39  71 CALM      30.15R
ESTHERVILLE    CLOUDY    41  37  86 NW7       30.15S
LE MARS        CLOUDY    46  41  81 NE5       30.14S
ORANGE CITY    CLOUDY    48  43  81 E3        30.15R
SHELDON        PTCLDY    43  39  87 CALM      30.13S
SIOUX CITY     PTCLDY    49  40  71 CALM      30.14R
6HR MIN TEMP:  48; 6HR MAX TEMP:  70;

SPENCER        CLOUDY    41  37  86 CALM      30.15S
6HR MIN TEMP:  41; 6HR MAX TEMP:  64;

STORM LAKE     CLEAR     48  41  76 NE8       30.14S
$$

ABBREVIATIONS USED IN REMARKS
   TC - TEMPERATURE IN CELSIUS
  WCI - WIND CHILL INDEX
   HX - HEAT INDEX
  VSB - VISIBILITY





USA.gov is the U.S. government's official web portal to all federal, state and local government web resources and services.